SCP
0 0 0 0 0 0 0 0 0 0 -0 -0 0 0 0 0 0 0 0 0 0 0 0 0 0 0 -0 0 0 0 0 0 0 0 0 0 0 0 0 0 0 0 0
0 0 0 0 0 0 0 0 0 0 -0 -0 0 0 0 0 0 0 0 0 0 0 0 0 0 -0 -0 0 0 0 0 0 0 0 0 0 0 0 0 0 0 0 0
0 0 0 0 0 0 0 0 0 0 0 -0 0 0 0 0 0 0 0 0 0 0 0 0 0 -0 -0 0 0 0 0 0 0 0 0 0 0 0 0 0 0 0 0
0 0 0 0 0 0 0 0 0 0 0 0 0 0 0 0 0 0 0 0 0 0 0 0 0 0 0 0 0 0 0 0 0 0 0 0 0 0 0 0 0 0 0
0 0 0 0 0 0 0 0 0 0 0 0 0 0 0 0 0 0 0 0 0 0 0 0 0 0 0 0 0 0 0 0 0 0 0 0 0 0 0 0 0 0 0
0 0 0 0 0 0 0 0 0 0 0 0 0 0 0 0 0 0 0 0 0 0 0 0 0 0 0 0 0 0 0 0 0 0 0 0 0 0 0 0 0 0 0
0 0 0 0 0 0 0 0 0 0 0 0 0 0 0 0 0 0 0 0 0 0 0 0 0 0 0 0 0 0 0 0 0 0 0 0 0 0 0 0 0 0 0
0 0 0 0 0 0 0 0 0 0 0 0 0 0 0 0 0 0 0 0 0 0 0 0 0 0 0 0 0 0 0 0 0 0 0 0 0 0 0 0 0 0 0
0 0 0 0 0 0 0 0 0 0 0 0 0 0 0 0 0 0 0 0 0 0 0 0 0 0 0 0 0 0 0 0 0 0 0 0 0 0 0 0 0 0 0
0 0 0 0 0 0 0 0 0 0 0 0 0 0 0 0 0 0 0 0 0 0 0 0 0 0 0 0 0 0 0 0 0 0 0 0 0 0 0 0 0 0 0
0 0 0 0 0 0 0 0 0 0 0 0 0 0 0 0 0 0 0 0 0 0 0 0 0 0 0 0 0 0 0 0 0 0 0 0 0 0 0 0 0 0 0
0 0 0 0 0 0 0 0 0 0 0 0 0 0 0 0 0 0 0 0 0 0 0 0 0 0 0 0 0 0 0 0 0 0 0 0 0 0 0 0 0 0 0
0 0 0 0 0 0 0 0 0 0 0 0 0 0 0 0 0 0 0 0 0 0 0 0 -0 0 0 0 0 0 0 0 0 0 0 0 0 0 0 0 0 0 0
0 0 0 0 0 0 0 0 0 0 0 0 0 0 0 0 0 0 0 0 0 0 0 0 0 0 0 0 0 -0 -0 0 0 0 0 0 0 0 0 0 0 0 0
0 0 0 0 0 0 0 0 0 0 0 0 0 0 0 0 0 0 0 0 0 0 0 0 0 0 0 0 0 0 0 0 0 0 0 0 0 0 0 0 0 0 0
0 0 0 0 0 0 0 0 0 0 0 0 0 0 0 0 0 0 0 0 0 0 0 0 0 0 0 0 0 0 0 0 0 0 0 0 0 0 0 0 0 0 0
0 0 0 0 0 0 0 0 0 0 0 0 0 0 0 0 0 0 0 0 0 0 0 0 0 0 0 0 0 0 0 0 0 0 0 0 0 0 0 0 0 0 0
0 0 0 0 0 0 0 0 0 0 0 0 0 0 0 0 0 0 0 0 0 0 0 0 0 0 0 0 0 0 0 0 0 0 0 0 0 0 0 0 0 0 0
0 0 0 0 0 0 0 0 0 0 0 0 0 0 0 0 0 0 0 0 0 0 0 0 0 0 0 0 0 0 0 0 0 0 0 0 0 0 0 0 0 0 0
0 0 0 0 0 0 0 0 0 0 0 0 0 0 0 0 0 0 0 0 0 0 0 0 0 0 0 0 0 0 0 0 0 0 0 0 0 0 0 0 0 0 0
0 0 0 0 0 0 0 0 0 0 0 0 0 0 0 0 0 0 0 0 0 0 0 0 0 0 0 0 0 0 0 0 0 0 0 0 0 0 0 0 0 0 0
0 0 0 0 0 0 0 0 0 0 0 0 0 0 0 0 0 0 0 0 0 0 0 0 0 0 0 0 0 0 0 0 0 0 0 0 0 0 0 0 0 0 0
0 0 0 0 0 0 0 0 0 0 0 0 0 0 0 0 0 0 0 0 0 0 0 0 0 0 0 0 0 0 0 0 0 0 0 0 0 0 0 0 0 0 0
0 0 0 0 0 0 0 0 0 0 0 0 0 0 0 0 0 0 0 0 0 0 0 0 0 0 0 0 0 0 0 0 0 0 0 0 0 0 0 0 0 0 0
0 0 0 0 0 0 0 0 0 0 0 0 0 0 0 0 0 0 0 0 0 0 0 0 0 0 0 0 0 0 0 0 0 0 0 0 0 0 0 0 0 0 0
0 0 0 0 0 0 0 0 0 0 0 0 0 0 0 0 0 0 0 0 0 0 0 0 0 0 0 0 0 0 0 0 0 0 0 0 0 0 0 0 0 0 0
Wind_Speed
5 4 3 3 4 4 4 4 4 3 3 2 2 2 1 1 1 1 2 2 2 4 4 3 3 3 3 4 5 4 4 3 2 3 3 3 3 2 1 2 2 2 3
3 2 2 3 4 5 5 5 5 5 4 3 2 1 2 1 1 1 2 2 2 3 3 4 3 3 3 4 4 4 3 2 2 3 3 2 1 1 1 1 2 2 2
3 3 4 4 4 5 6 5 5 5 4 2 2 2 2 2 1 1 1 2 2 2 2 3 3 3 3 4 4 5 5 4 2 2 3 4 4 1 1 0 1 2 2
3 3 4 5 6 6 5 5 5 4 4 4 4 5 3 2 2 2 2 2 2 2 2 3 3 4 3 4 4 4 3 5 4 2 1 1 3 4 2 1 0 1 2
2 3 4 5 5 5 5 5 5 5 4 5 5 5 3 2 1 1 2 2 2 2 3 3 3 3 3 4 4 4 4 3 4 3 3 2 1 2 3 2 1 0 1
2 2 2 3 3 3 4 4 5 5 5 5 5 5 5 3 3 3 3 2 1 1 2 3 3 3 3 3 4 4 4 3 3 3 3 4 3 3 3 3 3 2 1
1 1 1 2 2 3 4 5 5 5 5 5 5 5 5 5 6 5 5 4 2 2 3 3 3 3 3 3 3 4 4 4 4 4 3 2 2 3 3 4 3 1 1
2 2 2 2 3 4 4 5 6 5 5 5 5 4 4 4 4 4 4 4 4 3 4 3 3 3 3 3 3 3 3 3 3 4 4 2 2 3 3 4 4 2 0
3 3 2 2 2 3 4 5 6 5 5 5 4 4 4 4 4 4 3 3 3 3 4 4 4 4 4 4 4 3 3 4 3 3 4 3 2 2 2 3 4 5 3
4 3 2 2 2 3 3 3 4 5 4 4 4 4 4 4 4 4 4 4 4 4 5 5 5 4 4 4 4 3 3 4 3 3 4 3 2 3 3 3 3 3 4
4 3 3 2 1 1 1 2 3 3 3 3 3 3 3 3 3 4 4 4 4 4 5 6 5 5 5 5 5 5 5 5 4 4 5 4 4 3 3 3 3 3 3
3 3 3 2 1 1 1 0 1 2 2 3 2 2 2 2 3 3 3 4 4 4 5 5 5 5 5 5 6 6 5 6 6 5 5 5 4 4 3 3 3 3 3
3 3 3 2 2 1 1 1 1 1 1 2 2 2 2 2 3 3 3 3 4 4 4 5 5 5 5 6 6 6 5 5 6 6 6 6 6 5 4 4 3 3 3
3 3 3 3 2 2 1 1 1 1 0 1 1 1 2 2 2 2 2 3 3 4 4 4 5 5 5 5 5 5 5 5 5 5 5 6 7 7 6 5 5 4 3
3 3 3 3 3 2 2 2 1 1 0 0 1 1 1 1 1 1 2 2 2 3 3 4 3 3 3 4 5 5 5 5 5 4 4 5 7 9 7 5 5 5 4
3 3 4 4 3 3 2 2 2 1 0 0 1 1 0 0 1 1 1 2 2 2 2 3 3 3 3 5 8 6 5 5 5 5 4 4 5 7 9 9 8 8 6
3 3 3 3 3 3 2 2 1 1 0 0 1 1 1 1 1 1 1 2 2 2 2 3 3 4 4 6 8 8 5 5 5 5 4 4 4 5 4 6 7 8 10
3 3 3 4 3 2 2 2 1 0 0 0 1 1 1 1 1 0 1 2 1 2 2 3 3 3 4 6 7 7 4 4 4 5 5 5 4 4 5 4 4 4 5
2 3 3 3 2 2 2 1 1 1 1 1 1 1 1 1 1 1 1 1 1 1 1 2 3 3 3 5 6 6 3 3 4 4 4 5 5 7 8 5 5 4 4
2 2 3 3 3 3 2 1 1 1 1 2 2 1 1 1 1 2 1 1 1 1 1 1 2 3 3 5 5 5 3 3 3 2 3 6 7 8 8 6 5 6 5
2 3 3 3 3 3 2 1 2 2 3 2 1 1 1 1 1 1 1 0 0 0 1 1 1 1 2 3 5 5 3 4 3 3 3 4 8 9 9 7 5 7 5
3 3 3 3 4 3 2 2 3 3 2 1 1 1 1 1 0 0 0 0 1 1 1 1 1 1 1 2 3 5 5 4 3 3 3 4 7 8 8 6 6 8 5
3 3 2 3 4 4 3 3 4 3 2 1 1 1 1 0 0 1 1 0 1 1 1 1 1 2 1 2 4 5 5 5 3 3 5 5 6 6 5 6 7 5 3
3 3 3 4 4 5 4 3 3 3 2 2 2 2 1 1 1 0 1 1 1 1 1 1 2 2 2 2 2 2 2 4 3 2 4 5 5 4 4 4 4 3 3
3 3 3 3 4 5 5 4 4 3 2 2 2 2 1 1 1 1 1 1 2 3 3 3 2 3 3 4 5 3 2 2 3 2 1 1 1 2 2 2 2 2 2
3 3 3 3 4 5 5 5 4 3 2 2 2 1 1 1 1 1 2 3 2 3 4 4 4 4 5 6 6 6 6 6 5 2 2 2 3 3 3 3 3 2 3
Wind_Direction
249 234 218 191 168 166 169 172 163 167 155 152 151 148 156 143 135 161 136 138 143 146 142 149 153 152 149 155 147 131 118 107 113 99 80 36 42 83 121 135 131 129 126
281 242 209 184 180 178 178 179 181 179 177 182 176 162 149 151 167 166 137 139 147 155 155 152 159 156 148 154 154 140 130 130 139 128 125 112 14 3 63 144 155 150 131
237 234 212 197 190 189 187 189 189 184 181 166 132 99 73 60 77 151 160 162 161 164 161 161 156 161 160 166 168 156 146 152 159 143 146 152 184 181 348 272 166 161 154
237 225 218 205 200 201 195 191 186 183 180 165 162 161 168 182 208 193 178 170 166 168 171 164 168 172 168 169 177 169 155 153 165 160 124 136 146 151 155 318 285 180 174
251 230 224 217 211 200 192 190 182 184 184 184 183 179 185 185 147 140 162 173 178 176 176 166 165 168 170 171 171 165 163 163 166 166 155 127 92 124 145 179 223 261 225
299 269 241 226 213 197 187 183 184 191 191 192 193 193 188 176 165 176 189 192 199 203 186 166 168 171 171 177 177 169 169 171 164 166 164 156 160 171 154 161 180 200 249
312 300 279 248 219 199 189 186 190 198 198 196 199 203 199 190 192 192 193 192 196 207 203 184 181 176 179 179 171 166 172 170 166 172 176 174 171 156 148 145 156 168 247
325 313 270 252 234 213 195 191 195 200 197 201 207 208 204 199 201 202 196 197 202 202 191 190 188 182 177 175 166 165 172 168 172 176 173 172 175 152 151 154 148 144 253
310 295 288 270 246 221 206 198 199 200 199 202 203 202 201 201 197 194 194 194 193 188 181 183 182 182 180 178 167 171 178 170 177 177 173 172 167 153 154 152 154 156 178
318 309 292 274 258 228 210 196 198 200 200 201 204 209 205 203 193 186 195 196 193 186 178 183 182 181 182 178 173 172 175 170 178 174 173 180 167 159 163 162 167 164 165
314 311 304 295 300 324 204 202 203 193 191 198 203 206 206 202 190 194 201 197 193 187 185 186 185 184 183 179 179 184 175 181 185 181 183 191 175 167 169 165 166 168 159
316 316 323 339 357 359 357 214 207 202 202 199 200 206 203 196 195 204 204 192 191 191 190 188 188 188 187 185 188 192 186 187 192 194 189 193 181 180 176 173 177 176 172
330 342 351 347 336 337 338 301 255 224 208 191 190 200 200 201 207 210 203 191 190 190 190 188 191 194 191 190 196 194 192 194 198 197 196 195 182 190 186 180 183 180 176
331 343 341 331 329 338 336 318 311 285 192 166 172 192 206 210 213 205 195 189 192 193 193 194 194 196 195 194 193 191 193 197 202 201 201 198 192 196 189 187 188 179 176
345 342 336 333 334 340 339 330 319 319 76 138 184 225 231 204 191 194 190 177 188 200 199 192 189 192 195 199 191 189 191 193 198 200 204 206 201 200 195 191 187 183 184
333 337 338 335 329 323 320 322 323 313 322 216 256 265 267 201 189 204 187 178 186 193 190 195 190 198 212 208 200 191 189 189 194 199 204 211 206 207 208 207 201 194 192
311 319 319 312 305 302 299 287 288 312 322 266 284 267 233 246 242 209 188 192 193 189 194 202 196 208 216 207 205 199 191 191 197 197 197 210 209 206 198 211 215 217 221
298 303 307 311 308 304 309 303 305 307 292 302 295 273 251 261 273 215 221 225 217 202 205 207 202 205 218 209 209 203 196 197 200 200 201 202 205 204 196 195 205 219 225
282 288 293 294 308 316 312 330 338 325 302 293 289 285 271 253 242 246 257 265 229 221 225 213 204 206 226 217 212 202 185 193 202 204 202 201 207 215 210 197 204 223 237
326 326 329 338 339 326 329 2 329 319 291 282 279 290 276 239 235 241 254 290 235 226 214 224 221 213 225 223 215 200 181 191 202 208 212 216 217 222 219 206 203 220 235
352 353 355 348 332 329 346 345 319 295 292 291 291 294 286 255 243 248 260 232 195 150 182 222 267 247 237 237 231 216 195 198 201 208 216 219 223 228 228 222 213 226 228
3 359 354 342 341 347 357 343 319 306 309 298 294 290 290 287 296 181 303 211 166 173 204 215 282 292 276 254 245 229 224 216 205 216 218 220 227 232 234 232 230 236 234
355 352 354 350 351 353 357 342 322 329 335 339 325 311 303 298 226 191 195 202 189 201 229 221 257 289 295 273 257 242 235 233 231 226 229 237 239 237 237 239 240 235 216
356 355 2 359 347 346 347 336 329 338 350 347 331 330 340 346 354 337 209 203 208 213 225 231 245 265 275 271 261 250 243 238 243 244 245 250 252 244 236 241 240 224 210
354 359 356 349 338 341 342 342 344 355 2 355 352 348 345 351 349 338 298 253 240 229 229 232 229 233 250 253 253 252 234 217 216 212 219 215 230 233 230 228 229 220 215
3 1 353 344 338 342 343 345 348 352 359 355 350 343 346 352 348 332 330 321 291 275 262 253 249 257 260 266 260 260 251 238 222 211 211 225 229 234 232 230 233 227 224